This demonstration page uses our WeatherBlox Daily Observations layout. Learn more.

Left ArrowRight Arrow

Hourly Observations for October 21, 2021

Temp ( °F °C ) Dew Point ( °F °C ) Humidity (%) Winds ( mph kmh ) Pressure ( in mb ) Visibility ( mi km ) Precip ( " mm )
12:15 am 00:15 Clear 37 2.6 32 0.1 84 84 WNW 6 9 30.25 1024 10 16 N/A
12:35 am 00:35 Clear 36 2.1 32 undefined 86 86 WNW 6 9 30.25 1024 10 16 N/A
12:55 am 00:55 Clear 36 2.2 32 undefined 86 86 W 7 11 30.24 1024 10 16 N/A
1:15 am 01:15 Clear 37 2.5 32 undefined 84 84 WNW 7 11 30.24 1024 10 16 N/A
1:35 am 01:35 Clear 35 1.8 32 -0.1 87 87 WNW 6 9 30.25 1024 10 16 N/A
1:55 am 01:55 Clear 36 2 32 undefined 87 87 WNW 7 11 30.27 1025 10 16 N/A
2:15 am 02:15 Clear 36 2.1 32 undefined 86 86 WNW 6 9 30.27 1025 10 16 N/A
2:35 am 02:35 Clear 36 2 32 0.1 87 87 WNW 9 15 30.28 1025 10 16 N/A
2:55 am 02:55 Clear 35 1.8 32 -0.1 87 87 W 9 15 30.28 1025 10 16 N/A
3:15 am 03:15 Clear 35 1.8 32 undefined 88 88 W 8 13 30.28 1025 10 16 N/A
3:35 am 03:35 Clear 36 2 32 undefined 87 87 NW 8 13 30.28 1025 10 16 N/A
3:55 am 03:55 Clear 34 1.2 32 -0.2 91 91 WNW 7 11 30.28 1026 10 16 N/A
4:15 am 04:15 Clear 34 1.3 32 undefined 91 91 NW 7 11 30.29 1026 10 16 N/A
4:35 am 04:35 Clear 35 1.7 32 0.1 89 89 NW 8 13 30.28 1025 10 16 N/A
4:55 am 04:55 Clear 35 1.7 32 undefined 89 89 NNW 8 13 30.29 1026 10 16 N/A
5:15 am 05:15 Clear 35 1.6 32 undefined 89 89 N 8 13 30.28 1025 10 16 N/A
5:35 am 05:35 Clear 35 1.4 32 undefined 91 91 NNW 9 15 30.28 1025 10 16 N/A
5:55 am 05:55 Clear 34 1 32 -0.2 92 92 N 8 13 30.29 1026 10 16 N/A
6:15 am 06:15 Clear 33 0.7 31 -0.3 93 93 NNW 6 9 30.30 1026 10 16 N/A
6:35 am 06:35 Clear 33 0.5 31 -0.5 93 93 NNW 8 13 30.30 1026 10 16 N/A
6:55 am 06:55 Clear 33 0.5 31 -0.6 92 92 NNW 5 7 30.30 1026 10 16 N/A
7:15 am 07:15 Clear 33 0.5 31 -0.5 93 93 NNW 6 9 30.31 1026 10 16 N/A
7:35 am 07:35 Clear 33 0.6 31 -0.5 92 92 NNW 7 11 30.31 1026 10 16 N/A
7:55 am 07:55 Clear 33 0.7 31 -0.3 93 93 NNW 6 9 30.31 1026 10 16 N/A
8:15 am 08:15 Sunny 33 0.8 31 -0.3 92 92 NW 6 9 30.32 1027 10 16 N/A
8:35 am 08:35 Sunny 34 1 32 -0.2 92 92 NNW 5 7 30.32 1027 10 16 N/A
8:55 am 08:55 Sunny 35 1.5 32 undefined 90 90 NNW 7 11 30.31 1026 10 16 N/A
9:15 am 09:15 Sunny 36 2.4 33 0.3 86 86 NNW 6 9 30.31 1027 10 16 N/A
9:35 am 09:35 Sunny 38 3.2 33 0.6 83 83 NNW 8 13 30.32 1027 10 16 N/A
9:55 am 09:55 Sunny 39 4 33 0.6 79 79 NNW 8 13 30.32 1027 10 16 N/A
10:15 am 10:15 Sunny 40 4.7 33 0.4 74 74 NNW 8 13 30.31 1026 10 16 N/A
10:35 am 10:35 Sunny 42 5.4 32 0.1 69 69 NNW 6 9 30.31 1027 10 16 N/A
10:55 am 10:55 Sunny 43 6.1 32 0.1 66 66 NNW 6 9 30.31 1026 10 16 N/A
11:15 am 11:15 Sunny 44 6.6 32 0.2 64 64 NW 7 11 30.30 1026 10 16 N/A
11:35 am 11:35 Sunny 45 7.1 33 0.3 62 62 N 6 9 30.30 1026 10 16 N/A
11:55 am 11:55 Sunny 46 7.8 33 0.5 60 60 NNW 6 9 30.28 1025 10 16 N/A
12:15 pm 12:15 Sunny 48 8.8 33 0.6 57 57 WNW 6 9 30.27 1025 10 16 N/A
12:35 pm 12:35 Sunny 49 9.3 32 0.2 53 53 NNW 3 6 30.27 1025 10 16 N/A
12:55 pm 12:55 Sunny 50 10 32 undefined 50 50 N 5 7 30.25 1024 10 16 N/A
1:15 pm 13:15 Sunny 51 10.8 31 -0.3 47 47 N N/A 30.24 1024 10 16 N/A
1:35 pm 13:35 Sunny 53 11.6 32 -0.2 44 44 NW 6 9 30.22 1023 10 16 N/A
1:55 pm 13:55 Sunny 55 12.5 31 -0.5 41 41 N 3 6 30.20 1023 10 16 N/A
2:15 pm 14:15 Sunny 55 12.6 32 -0.1 42 42 N N/A 30.19 1022 10 16 N/A
2:35 pm 14:35 Sunny 56 13.6 32 undefined 40 40 N N/A 30.17 1022 10 16 N/A
2:55 pm 14:55 Sunny 58 14.2 32 undefined 38 38 N N/A 30.17 1022 10 16 N/A
3:15 pm 15:15 Sunny 58 14.6 32 undefined 37 37 N N/A 30.14 1021 10 16 N/A
3:35 pm 15:35 Sunny 58 14.6 33 0.4 38 38 N N/A 30.14 1021 10 16 N/A
3:55 pm 15:55 Sunny 59 15 32 0.2 37 37 N N/A 30.13 1020 10 16 N/A
4:15 pm 16:15 Sunny 59 15 32 0.2 37 37 N N/A 30.13 1020 7 11 N/A
4:35 pm 16:35 Hazy 60 15.5 33 0.5 36 36 NW 3 6 30.12 1020 3 5 N/A
4:55 pm 16:55 Sunny 59 15.2 33 0.3 36 36 N N/A 30.13 1020 10 16 N/A
5:15 pm 17:15 Sunny 59 15 33 0.7 38 38 NNE 3 6 30.13 1020 10 16 N/A
5:35 pm 17:35 Sunny 59 15.1 33 0.7 38 38 N N/A 30.13 1020 10 16 N/A
5:55 pm 17:55 Sunny 59 15.2 33 0.6 37 37 N N/A 30.12 1020 10 16 N/A
6:15 pm 18:15 Sunny 59 15 34 1.1 39 39 N N/A 30.12 1020 10 16 N/A
6:35 pm 18:35 Sunny 56 13.5 35 1.8 45 45 N N/A 30.13 1020 10 16 N/A
6:55 pm 18:55 Clear 54 12.3 36 2 50 50 N N/A 30.15 1021 10 16 N/A
7:15 pm 19:15 Clear 52 11.1 35 1.7 53 53 N N/A 30.16 1021 10 16 N/A
7:35 pm 19:35 Clear 51 10.6 35 1.9 55 55 N N/A 30.17 1022 10 16 N/A
7:55 pm 19:55 Clear 51 10.7 35 1.9 55 55 N N/A 30.17 1022 10 16 N/A
8:15 pm 20:15 Clear 49 9.3 36 2.3 62 62 E 3 6 30.18 1022 10 16 N/A
8:35 pm 20:35 Clear 49 9.7 36 2.1 59 59 SE 3 6 30.17 1022 10 16 N/A
8:55 pm 20:55 Clear 47 8.6 35 1.9 63 63 ESE 3 6 30.18 1022 10 16 N/A
9:15 pm 21:15 Clear 46 7.9 34 1.2 63 63 ESE 3 6 30.18 1022 10 16 N/A
9:35 pm 21:35 Clear 43 6 34 1.3 72 72 SE 5 7 30.20 1023 10 16 N/A
9:55 pm 21:55 Clear 42 5.8 35 1.4 74 74 SSE 3 6 30.20 1023 10 16 N/A
10:15 pm 22:15 Clear 42 5.4 34 1 74 74 SE 3 6 30.20 1023 10 16 N/A
10:35 pm 22:35 Clear 43 5.9 34 1.1 72 72 N N/A 30.20 1023 10 16 N/A
10:55 pm 22:55 Clear 42 5.6 34 1 73 73 ESE 5 7 30.20 1023 10 16 N/A
11:15 pm 23:15 Clear 42 5.5 33 0.8 72 72 SE 3 6 30.20 1023 10 16 N/A
11:35 pm 23:35 Clear 42 5.8 33 0.5 69 69 SE 3 6 30.20 1023 10 16 N/A
11:55 pm 23:55 Clear 42 5.5 32 0.1 69 69 N N/A 30.19 1022 10 16 N/A

Powered by AerisWeather